Location: Kumla
(59.1265°N, 15.1401°E)
Time: 16:34:31
(UTC+01:00)

Transit 2A - Pass Details

Date: 06 December 2023
Orbit: 600 x 953 km, 66.7° (Epoch: 27 February)

Event Time Altitude Azimuth Distance (km) Brightness Sun altitude
Rises 20:34:47 0° 298° (WNW) 2,946 9.9 -39.8°
Reaches altitude 10° 20:37:16 10° 308° (NW) 2,001 8.8 -40.1°
Enters shadow 20:37:17 10° 308° (NW) 1,993 8.8 -40.1°
Maximum altitude 20:41:23 35° 15° (NNE) 987 - -40.6°
Drops below altitude 10° 20:45:23 10° 82° (E) 1,950 - -41.0°
Sets 20:47:47 0° 92° (E) 2,858 - -41.3°
